• Join FlightAware (Why Join?)
  • Login
  • US Flag 
05:26PM EDT


 

Airport Tracker/Info


-or-


 

Live Flight TrackerFlight Track Log ✈ AWI3680 ✈ 08-Jul-2013 ✈ KPHL - KALB

Flight Track Log - Related Links

Times and Time Zones

All times are in EDT time to prevent confusion due to time zone crossing. See the AWI3680 flight status page for this flight to view local times or setup timezone preferences in your user account.

Time Position Orientation Groundspeed Altitude Reporting Facility
EDT Latitude Longitude Course Direction KTS MPH feet Rate Location/Type
08:25PM 39.8500 -75.2833 105° East 162 186 800  Level Philadelphia TRACON
08:26PM 39.8167 -75.3167 218° Southwest 200 230 2,700 2,280 Climbing Philadelphia TRACON
08:27PM 39.7667 -75.3500 207° Southwest 207 238 5,200 2,520 Climbing Philadelphia TRACON
08:28PM 39.8264 -74.9696 123° Southeast  Level FlightAware Approximate
08:28PM 39.7167 -75.3333 166° South 244 281 7,500  Level Philadelphia TRACON
08:29PM 39.8167 -74.8809 90° East  Level FlightAware Approximate
08:29PM 39.7333 -75.2500 75° East 275 316 9,100  Level Philadelphia TRACON
08:30PM 39.8016 -74.7910 105° East  Level FlightAware Approximate
08:30PM 39.7500 -75.1333 79° East 339 390 10,100  Level Philadelphia TRACON
08:31PM 39.7836 -74.7016 105° East  Level FlightAware Approximate
08:32PM 39.7647 -74.9381 84° East 368 423 12,000  Level New York Center
08:33PM 39.7844 -74.7933 80° East 383 441 12,200 780 Climbing New York Center
08:34PM 39.8428 -74.6722 58° Northeast 389 448 13,600 1,380 Climbing New York Center
08:35PM 39.9331 -74.5825 37° Northeast 379 436 15,000 1,560 Climbing New York Center
08:36PM 40.0283 -74.4767 40° Northeast 391 450 16,700 1,380 Climbing New York Center
08:37PM 40.1106 -74.3750 43° Northeast 399 459 17,900 1,140 Climbing New York Center
08:38PM 40.1800 -74.2836 45° Northeast 405 466 19,100 1,080 Climbing New York Center
08:39PM 40.2603 -74.1817 44° Northeast 400 460 20,100 960 Climbing New York Center
08:40PM 40.3403 -74.0794 44° Northeast 395 455 21,100 960 Climbing New York Center
08:41PM 40.4222 -73.9744 44° Northeast 395 455 22,100 1,140 Climbing New York Center
08:42PM 40.5100 -73.8939 35° Northeast 389 448 23,500 540 Climbing New York Center
08:44PM 40.7508 -73.8894 North 402 463 24,000 120 Climbing Boston Center
08:45PM 40.8969 -73.8844 North 423 487 24,000  Level Boston Center
08:46PM 41.0469 -73.8933 357° North 434 499 24,000 -300 Level Boston Center
08:47PM 41.1758 -73.9072 355° North 452 520 23,500 -660 Descending Boston Center
08:48PM 41.3053 -73.8992 North 459 528 22,700 -780 Descending Boston Center
08:49PM 41.4136 -73.8961 North 428 493 22,000 -780 Descending Boston Center
08:50PM 41.5261 -73.8903 North 405 466 21,200 -1,140 Descending Boston Center
08:51PM 41.6367 -73.8844 North 400 460 19,800 -1,920 Descending Boston Center
08:52PM 41.7389 -73.8756 North 380 437 17,400 -2,220 Descending Boston Center
08:53PM 41.8058 -73.8661 North 379 436 16,100 -1,560 Descending Boston Center
08:54PM 41.8747 -73.8619 North 342 394 15,300 -1,680 Descending Boston Center
08:54PM 41.9311 -73.8353 19° North 344 396 13,900 -1,980 Descending Boston Center
08:55PM 42.0194 -73.7842 23° Northeast 337 388 12,100 -1,920 Descending Boston Center
08:56PM 42.0614 -73.7600 23° Northeast 339 390 11,100 -1,020 Descending Boston Center
08:56PM 42.1053 -73.7525 North 331 381 11,100  Level Boston Center
08:57PM 42.1489 -73.7589 354° North 318 366 11,100  Level Boston Center
08:57PM 42.1947 -73.7656 354° North 317 365 11,100 -300 Level Boston Center
08:58PM 42.2406 -73.7667 359° North 328 377 10,800 -1,500 Descending Boston Center
08:59PM 42.3342 -73.7797 354° North 288 331 8,700 -1,860 Descending Boston Center
09:00PM 42.3986 -73.7839 357° North 278 320 7,100 -1,980 Descending Boston Center
09:01PM 42.4797 -73.7942 355° North 273 314 5,000 -1,980 Descending Boston Center
09:02PM 42.5589 -73.7986 358° North 262 302 3,000 -1,440 Descending Boston Center
09:03PM 42.6153 -73.8028 357° North 206 237 2,200 -660 Descending Boston Center
09:04PM 42.6611 -73.8036 359° North 151 174 1,800 -600 Descending Boston Center
09:05PM 42.7006 -73.8075 356° North 139 160 1,000 -840 Descending Boston Center
09:06PM 42.7403 -73.8083 359° North 151 174 300 -780 Descending Boston Center